Hastings, NE

3:41 AM CST on December 10, 2016 (GMT -0600)
Hastings Municipal

Weather History for KHSI - December, 2012

Change the Weather History Date:

Monday, December 3, 2012

  Actual Average Record
Temperature  
Mean Temperature 44 °F 31 °F  
Max Temperature 59 °F 40 °F 72 °F (1959)
Min Temperature 29 °F 21 °F -12 °F (1919)
Degree Days  
Heating Degree Days 21 34  
Month to date heating degree days 53 101  
Since 1 July heating degree days 1312 1382  
Cooling Degree Days 0 0  
Month to date cooling degree days 0 0  
Year to date cooling degree days 1339 1077  
Moisture  
Dew Point 31 °F    
Average Humidity 67    
Maximum Humidity 100    
Minimum Humidity 33    
Precipitation  
Precipitation 0.00 in 0.04 in 1.22 in (1953)
Month to date precipitation 0.00 0.12  
Year to date precipitation 18.78 26.62  
Snow  
Snow 0.00 in 0.20 in 5.10 in (2011)
Month to date snowfall 0.0 0.5  
Since 1 July snowfall 0.3 4.3  
Snow Depth 0.00 in    
Sea Level Pressure  
Sea Level Pressure 29.79 in    
Wind  
Wind Speed 12 mph (WNW)    
Max Wind Speed 12 mph    
Max Gust Speed 13 mph    
Visibility 6 miles    
Events Fog    
T = Trace of Precipitation, MM = Missing Value Source: NWS Daily Summary

Daily Weather History Graph

Daily Weather History Graph

Search for Another Location

Airport or City:

Trip Planner

Search our weather history database for the weather conditions in past years. The results will help you decide how hot, cold, wet, or windy it might be!

Date:

Astronomy

Dec. 03, 2012 Rise Set
Actual Time 7:40 AM CST 5:06 PM CST
Civil Twilight 7:10 AM CST 5:37 PM CST
Nautical Twilight 6:36 AM CST 6:11 PM CST
Astronomical Twilight 6:03 AM CST 6:44 PM CST
Moon 9:55 PM CST (12/3) 11:03 AM CST (12/3)
Length of Visible Light 10h 27m
Length of Day
9h 26m
Waning Gibbous, 78% of the Moon is Illuminated
Dec 3
Waning Gibbous
Dec 6
Last Quarter
Dec 13
New
Dec 19
First Quarter
Dec 28
Full

Hourly Weather History & Observations

Time (CST) Temp. Windchill Dew Point Humidity Pressure Visibility Wind Dir Wind Speed Gust Speed Precip Events Conditions
12:53 AM 45.0 °F 40.6 °F 41.0 °F 86% 29.63 in 9.0 mi South 8.1 mph - N/A   Clear
1:53 AM 42.1 °F 38.4 °F 39.0 °F 89% 29.60 in 7.0 mi SSE 5.8 mph - N/A   Clear
2:53 AM 41.0 °F 35.8 °F 39.0 °F 93% 29.58 in 7.0 mi SSE 8.1 mph - N/A   Clear
3:53 AM 39.9 °F 33.9 °F 37.9 °F 93% 29.56 in 7.0 mi South 9.2 mph - N/A   Clear
4:53 AM 35.1 °F 31.0 °F 34.0 °F 96% 29.60 in 2.5 mi WSW 4.6 mph - N/A   Clear
5:07 AM 35.6 °F - 35.6 °F 100% 29.60 in 3.0 mi Calm Calm - N/A   Clear
5:20 AM 33.8 °F - 32.0 °F 93% 29.61 in 2.5 mi Calm Calm - N/A   Clear
5:27 AM 33.8 °F - 33.8 °F 100% 29.60 in 3.0 mi Calm Calm - N/A   Clear
5:53 AM 32.0 °F - 32.0 °F 100% 29.62 in 2.5 mi Calm Calm - N/A   Clear
6:10 AM 33.8 °F - 33.8 °F 100% 29.62 in 0.8 mi Calm Calm - N/A   Clear
6:22 AM 30.2 °F 26.7 °F 28.4 °F 93% 29.63 in 0.5 mi WNW 3.5 mph - N/A Fog Light Freezing Fog
6:53 AM 30.9 °F 26.2 °F 30.9 °F 100% 29.65 in 0.2 mi West 4.6 mph - N/A Fog Light Freezing Fog
7:26 AM 32.0 °F - 32.0 °F 100% 29.65 in 2.0 mi Calm Calm - N/A   Mostly Cloudy
7:35 AM 32.0 °F 26.4 °F 30.2 °F 93% 29.66 in 0.8 mi WSW 5.8 mph - N/A   Mist
7:53 AM 30.9 °F 24.3 °F 30.9 °F 100% 29.69 in 0.2 mi West 6.9 mph - N/A Fog Light Freezing Fog
8:02 AM 30.2 °F 25.4 °F 30.2 °F 100% 29.66 in 1.2 mi WSW 4.6 mph - N/A   Partly Cloudy
8:11 AM 30.2 °F 24.3 °F 30.2 °F 100% 29.68 in 2.5 mi West 5.8 mph - N/A   Clear
8:23 AM 32.0 °F 24.2 °F 32.0 °F 100% 29.69 in 3.0 mi West 9.2 mph - N/A   Clear
8:53 AM 37.4 °F 30.8 °F 35.6 °F 93% 29.72 in 6.0 mi West 9.2 mph - N/A   Clear
9:53 AM 48.0 °F - 39.9 °F 74% 29.77 in 10.0 mi NW 15.0 mph - N/A   Clear
10:53 AM 55.9 °F - 37.9 °F 51% 29.82 in 10.0 mi North 31.1 mph 46.0 mph N/A   Clear
11:53 AM 57.9 °F - 37.0 °F 46% 29.86 in 10.0 mi North 29.9 mph 42.6 mph N/A   Clear
12:53 PM 59.0 °F - 35.6 °F 42% 29.87 in 10.0 mi NNW 27.6 mph 34.5 mph N/A   Clear
1:53 PM 57.9 °F - 34.0 °F 41% 29.90 in 10.0 mi NNW 24.2 mph 32.2 mph N/A   Clear
2:53 PM 57.9 °F - 30.9 °F 36% 29.92 in 10.0 mi NNW 19.6 mph 26.5 mph N/A   Clear
3:53 PM 57.0 °F - 28.0 °F 33% 29.96 in 10.0 mi NNW 16.1 mph - N/A   Clear
4:53 PM 51.1 °F - 25.0 °F 36% 30.01 in 10.0 mi NNW 9.2 mph - N/A   Clear
5:53 PM 45.0 °F 39.7 °F 23.0 °F 42% 30.06 in 10.0 mi NNW 10.4 mph - N/A   Clear
7:53 PM 33.1 °F 24.9 °F 19.0 °F 56% 30.14 in 10.0 mi WNW 10.4 mph - N/A   Clear
8:53 PM 34.0 °F 28.0 °F 19.9 °F 56% 30.14 in 10.0 mi NW 6.9 mph - N/A   Clear
9:53 PM 30.9 °F 25.2 °F 18.0 °F 59% 30.14 in 10.0 mi WNW 5.8 mph - N/A   Clear
10:53 PM 35.1 °F 31.0 °F 19.0 °F 52% 30.14 in 10.0 mi West 4.6 mph - N/A   Clear
11:53 PM 36.0 °F 30.3 °F 18.0 °F 48% 30.14 in 10.0 mi West 6.9 mph - N/A   Clear